BEIDOU-3 G1 (43683 NORAD) Tracking and Keplerian Element Data

This shows tracking and keplerian element data for the satellite.

Feedback or suggestion? Click here.




ElementValue
Catalog43683
NameBEIDOU-3 G1
Epoch Orbit32
Epoch Day323.54979906
Epoch Year2018
RAAN274.1776
Inclination3.0529
Eccentricity0.0002127
Argument of Perigee323.3747
Mean Anonmoly163.5724
Mean Motion1.00276217
Decay Rate-2.34E-06
L11 43683U 18085A 18323.54979906 -.00000234 00000-0 00000+0 0 9991
L22 43683 3.0529 274.1776 0002127 323.3747 163.5724 1.00276217 329

Live tracking and technical data element details for BEIDOU-3 G1 (NORAD 43683). BEIDOU-3 G1 can be tracked NOW for your location showing map with azimuth and elevation plus other details from your city location.

Track the satellite on the map from your city or location and see movement details for azimuth, elevation, latitude, longitude, range, height, and movement on the map or in text.







IsCatalogInMostPopularTable: catalog: 43683, numindb: 9
Update: records affected: 1



GetName: 43683 BEIDOU-3 G1

Hit Count: updated at: Tue, 20 Nov 2018 11:37:12 GMT